Location: Villingen
(48.0639°N, 8.4609°E)
Time: 15:03:47
(UTC+02:00)

Tiangong 2 - Visible Passes

Search period start: 21 May 2018 00:00
Search period end: 31 May 2018 00:00
Orbit: 382 x 386 km, 42.8° (Epoch: 21 May)

Date Brightness Start Highest point End Pass type
(mag) Time Alt. Az. Time Alt. Az. Time Alt. Az.
22 May 3.0 21:58:46 10° S 22:00:28 14° SSE 22:01:47 11° SE visible
22 May 3.6 23:33:50 10° SW 23:34:03 11° SW 23:34:03 11° SW visible
23 May 2.2 22:34:21 10° SW 22:36:58 24° SSE 22:37:44 22° SE visible
24 May 2.0 23:10:45 10° WSW 23:13:16 30° S 23:13:16 30° S visible
25 May 2.1 22:11:08 10° SW 22:13:55 28° S 22:16:21 12° ESE visible
25 May 3.1 23:47:29 10° WSW 23:48:33 17° WSW 23:48:33 17° WSW visible
26 May 2.0 22:47:43 10° WSW 22:50:33 30° S 22:51:28 25° SSE visible
27 May 2.0 21:48:01 10° WSW 21:50:51 31° S 21:53:41 10° ESE visible
27 May 2.7 23:24:35 10° WSW 23:26:29 21° SW 23:26:29 21° SW visible
28 May 2.2 22:24:43 10° WSW 22:27:28 27° S 22:29:15 16° SE visible
29 May 2.9 23:01:49 10° WSW 23:03:58 17° SSW 23:04:09 17° SSW visible
30 May 2.6 22:01:47 10° WSW 22:04:19 22° SSW 22:06:52 10° SE visible
